Starlink 30264

operational
NORAD ID: 57534 Int'l Des: 2023-115 Owner: SPXS Country: US Constellation: starlink
LEOCIRCULAR

关于 Starlink 30264

正在加载描述...

实时位置

正在加载3D地球...

即将过境

高度历史

Altitude vs Time

uPlot chart will show altitude changes over time

两行轨道根数

1 57534U 23115P 25260.98386630 .00001915 00000-0 79111-4 0 9993
2 57534 43.0020 104.2361 0001516 270.7332 89.3346 15.27579560118942
Epoch: Sep 17, 2025 • Age: 21 hours

当前状态

高度 492.4 km
速度 7.62 km/s
星下点 -35.30°S, 14.46°E
发射日期 Aug 8, 2023
运行时间 2.1 years
类型 internet

技术详情

分类 Payload
质量 730.00 kg
干质量 700.00 kg
总质量 730.00 kg
长度 0.30 m
直径 4.10 m
跨度 29.00 m
形状 Box + pan
制造商 SPXS
平台类型 Starlink V2M
阶段状态 In Orbit
所有者/国家 SPXS/US

大型星座

Loading constellations...